Thompson, Ohio, United States (44086)
Lat: 41.69N, Lon: 81.05W
Wx Zone: OHZ013
Local Info
Past Weather Observations for Thursday, February 4, 2016

NOTE: This archive is for the closest National Weather Service station to Thompson. Information may differ from the station used for current weather conditions.

Click here for Long-term Archive

Time Weather Temperature Dewpoint Humidity Pressure Winds Precip Visibility
23:53
Overcast
Light Snow
28°F / -2°C 25°F / -4°C 86% 30.24 in
(1024 mb)
W 8.1 mph
(W 13 kph)
0.00 in
(0.00 mm)
7SM
23:51
Overcast
Light Snow
28°F / -2°C 25°F / -4°C 86% 30.24 in
(1024 mb)
W 8.1 mph
(W 13 kph)
0.00 in
(0.00 mm)
7SM
23:16
Overcast
Light Snow
28°F / -2°C 25°F / -4°C 86% 30.24 in
(1024 mb)
W 6.9 mph
(W 11 kph)
0.00 in
(0.00 mm)
8SM
22:53
Overcast
Light Snow
28°F / -2°C 25°F / -4°C 86% 30.24 in
(1024 mb)
SSW 9.2 mph
(SSW 15 kph)
0.00 in
(0.00 mm)
8SM
22:20
Overcast
Light Snow
28°F / -2°C 25°F / -4°C 86% 30.21 in
(1023 mb)
W 8.1 mph
(W 13 kph)
0.00 in
(0.00 mm)
6SM
21:59
Overcast
Light Snow
28°F / -2°C 27°F / -3°C 93% 30.21 in
(1023 mb)
W 8.1 mph
(W 13 kph)
0.00 in
(0.00 mm)
4SM
21:53
Overcast
Light Snow
28°F / -2°C 27°F / -3°C 93% 30.21 in
(1023 mb)
W 8.1 mph
(W 13 kph)
0.00 in
(0.00 mm)
4SM
21:05
Overcast
Light Snow
28°F / -2°C 27°F / -3°C 93% 30.21 in
(1023 mb)
W 5.8 mph
(W 9 kph)
0.00 in
(0.00 mm)
5SM
20:53
Overcast
Light Snow
28°F / -2°C 27°F / -3°C 93% 30.21 in
(1023 mb)
W 8.1 mph
(W 13 kph)
0.00 in
(0.00 mm)
4SM
20:21
Overcast
Light Snow
30°F / -1°C 27°F / -3°C 86% 30.21 in
(1023 mb)
W 8.1 mph
(W 13 kph)
0.00 in
(0.00 mm)
4SM
20:05
Overcast
Light Snow
30°F / -1°C 27°F / -3°C 86% 30.21 in
(1023 mb)
NW 8.1 mph
(NW 13 kph)
0.00 in
(0.00 mm)
4SM
19:53
Overcast
Light Snow
30°F / -1°C 27°F / -3°C 86% 30.21 in
(1023 mb)
WNW 9.2 mph
(WNW 15 kph)
0.00 in
(0.00 mm)
5SM
18:53
Overcast
Light Snow
30°F / -1°C 27°F / -3°C 86% 30.18 in
(1022 mb)
NW 8.1 mph
(NW 13 kph)
0.00 in
(0.00 mm)
4SM
18:42
Overcast
Light Snow
30°F / -1°C 27°F / -3°C 86% 30.18 in
(1022 mb)
WNW 9.2 mph
(WNW 15 kph)
0.00 in
(0.00 mm)
4SM
18:34
Overcast
Light Snow
30°F / -1°C 28°F / -2°C 93% 30.18 in
(1022 mb)
WNW 6.9 mph
(WNW 11 kph)
0.00 in
(0.00 mm)
4SM
18:21
Overcast
Light Snow
30°F / -1°C 28°F / -2°C 93% 30.18 in
(1022 mb)
WNW 6.9 mph
(WNW 11 kph)
0.00 in
(0.00 mm)
3SM
18:14
Overcast
Light Snow
30°F / -1°C 28°F / -2°C 93% 30.18 in
(1022 mb)
W 6.9 mph
(W 11 kph)
0.00 in
(0.00 mm)
3SM
18:00
Overcast
Light Snow
30°F / -1°C 28°F / -2°C 93% 30.18 in
(1022 mb)
W 4.6 mph
(W 7 kph)
0.00 in
(0.00 mm)
2 1/2SM
17:53
Overcast
Light Snow
30°F / -1°C 28°F / -2°C 93% 30.18 in
(1022 mb)
WNW 5.8 mph
(WNW 9 kph)
0.00 in
(0.00 mm)
2 1/2SM
17:39
Overcast
Light Snow
30°F / -1°C 28°F / -2°C 93% 30.18 in
(1022 mb)
WNW 5.8 mph
(WNW 9 kph)
0.00 in
(0.00 mm)
2SM
17:19
Overcast
Light Snow
30°F / -1°C 28°F / -2°C 93% 30.18 in
(1022 mb)
NW 5.8 mph
(NW 9 kph)
0.00 in
(0.00 mm)
2SM
16:53
Overcast
Light Snow
30°F / -1°C 28°F / -2°C 93% 30.18 in
(1022 mb)
NW 10.4 mph
(NW 17 kph)
0.00 in
(0.00 mm)
1 3/4SM
16:42
Overcast
Light Snow
30°F / -1°C 28°F / -2°C 93% 30.15 in
(1021 mb)
W 4.6 mph
(W 7 kph)
0.00 in
(0.00 mm)
2 1/2SM
16:26
Overcast
Light Snow
30°F / -1°C 28°F / -2°C 93% 30.15 in
(1021 mb)
WNW 8.1 mph
(WNW 13 kph)
0.00 in
(0.00 mm)
3SM
15:53
Overcast
Light Snow
32°F / 0°C 28°F / -2°C 87% 30.15 in
(1021 mb)
NW 8.1 mph
(NW 13 kph)
0.00 in
(0.00 mm)
5SM
14:53
Overcast
Light Snow
34°F / 1°C 28°F / -2°C 81% 30.12 in
(1020 mb)
NW 5.8 mph
(NW 9 kph)
0.00 in
(0.00 mm)
7SM
14:27
Overcast
Light Snow
32°F / 0°C 28°F / -2°C 87% 30.12 in
(1020 mb)
NW 8.1 mph
(NW 13 kph)
0.00 in
(0.00 mm)
3SM
14:09
Overcast
Light Snow
34°F / 1°C 28°F / -2°C 81% 30.12 in
(1020 mb)
WNW 12.7 mph
(WNW 20 kph)
0.00 in
(0.00 mm)
6SM
14:02
Overcast
34°F / 1°C 28°F / -2°C 81% 30.12 in
(1020 mb)
W 11.5 mph
(W 19 kph)
- 10SM
13:53
Overcast
34°F / 1°C 28°F / -2°C 81% 30.12 in
(1020 mb)
W 10.4 mph
(W 17 kph)
- 10SM
12:53
Overcast
34°F / 1°C 28°F / -2°C 81% 30.15 in
(1021 mb)
W 11.5 mph
(W 19 kph)
- 10SM
12:34
Overcast
34°F / 1°C 28°F / -2°C 81% 30.15 in
(1021 mb)
SSW 11.5 mph
(SSW 19 kph)
- 10SM
11:53
Overcast
34°F / 1°C 28°F / -2°C 81% 30.15 in
(1021 mb)
SSW 10.4 mph
(SSW 17 kph)
0.00 in
(0.00 mm)
10SM
10:53
Overcast
Light Snow
34°F / 1°C 28°F / -2°C 81% 30.15 in
(1021 mb)
W 8.1 mph
(W 13 kph)
0.00 in
(0.00 mm)
5SM
10:48
Overcast
Light Snow
34°F / 1°C 28°F / -2°C 81% 30.15 in
(1021 mb)
W 8.1 mph
(W 13 kph)
0.00 in
(0.00 mm)
5SM
09:53
Overcast
34°F / 1°C 28°F / -2°C 81% 30.15 in
(1021 mb)
SSW 11.5 mph
(SSW 19 kph)
- 10SM
09:49
Overcast
34°F / 1°C 28°F / -2°C 81% 30.15 in
(1021 mb)
W 12.7 mph
(W 20 kph)
- 10SM
08:53
Overcast
34°F / 1°C 28°F / -2°C 81% 30.12 in
(1020 mb)
SSW 11.5 mph
(SSW 19 kph)
- 10SM
08:27
Overcast
34°F / 1°C 28°F / -2°C 81% 30.12 in
(1020 mb)
W 11.5 mph
(W 19 kph)
- 10SM
08:19
Overcast
34°F / 1°C 28°F / -2°C 81% 30.12 in
(1020 mb)
SSW 13.8 mph
(SSW 22 kph)
- 10SM
08:02
Overcast
34°F / 1°C 28°F / -2°C 81% 30.09 in
(1019 mb)
SSW 11.5 mph
(SSW 19 kph)
- 10SM
07:53
Overcast
34°F / 1°C 28°F / -2°C 81% 30.09 in
(1019 mb)
SSW 12.7 mph
(SSW 20 kph)
- 10SM
07:28
Overcast
34°F / 1°C 28°F / -2°C 81% 30.09 in
(1019 mb)
SSW 11.5 mph
(SSW 19 kph)
- 10SM
07:15
Overcast
34°F / 1°C 28°F / -2°C 81% 30.09 in
(1019 mb)
W 10.4 mph
(W 17 kph)
- 10SM
07:07
Overcast
34°F / 1°C 28°F / -2°C 81% 30.09 in
(1019 mb)
W 9.2 mph
(W 15 kph)
- 10SM
07:00
Overcast
34°F / 1°C 28°F / -2°C 81% 30.09 in
(1019 mb)
W 9.2 mph
(W 15 kph)
- 10SM
06:53
Overcast
34°F / 1°C 30°F / -1°C 87% 30.09 in
(1019 mb)
W 9.2 mph
(W 15 kph)
- 10SM
05:53
Overcast
34°F / 1°C 30°F / -1°C 87% 30.06 in
(1018 mb)
W 12.7 mph
(W 20 kph)
0.00 in
(0.00 mm)
8SM
04:53
Overcast
36°F / 2°C 28°F / -2°C 75% 30.04 in
(1017 mb)
W 9.2 mph
(W 15 kph)
- 10SM
03:53
Overcast
36°F / 2°C 30°F / -1°C 81% 30.04 in
(1017 mb)
SSW 12.7 mph
(SSW 20 kph)
- 10SM
03:38
Overcast
36°F / 2°C 30°F / -1°C 81% 30.01 in
(1016 mb)
W 12.7 mph
(W 20 kph)
- 10SM
03:09
Overcast
36°F / 2°C 28°F / -2°C 75% 30.01 in
(1016 mb)
W 12.7 mph
(W 20 kph)
- 10SM
02:53
Overcast
36°F / 2°C 28°F / -2°C 75% 30.01 in
(1016 mb)
SSW 12.7 mph
(SSW 20 kph)
- 10SM
01:53
Overcast
36°F / 2°C 30°F / -1°C 81% 29.98 in
(1015 mb)
SSW 13.8 mph
(SSW 22 kph)
- 10SM
00:53
Overcast
37°F / 3°C 30°F / -1°C 75% 29.98 in
(1015 mb)
W 12.7 mph
(W 20 kph)
- 10SM
Time Weather Temperature Dewpoint Humidity Pressure Winds Precip Visibility


Weather for websites

WeatherForYou.com, LLC is not responsible for any damages or problems caused by this service. Current weather conditions are obtained from the closest station including government and personal stations which may have varying degrees of accuracy. Weather forecasts are derived from the NOAA NDFD. Like all things, this site belongs to Jesus Christ... He just trusts us to maintain it. If you have any questions or comments email webmaster@weatherforyou.com

Copyright © 2016, WeatherForYou.com LLC. All rights reserved.